SCP
0 0 0 0 0 0 0 0 0 0 0 0 1 1 2 3 3 3 3 3 3 3 3 3 2 3 4 5 4 3 3 3 3 3 3 3 3 2 1 1 1 1 1 1
0 0 0 0 0 0 0 0 0 0 0 0 1 1 3 3 3 3 3 4 4 4 3 3 3 3 4 5 4 4 3 3 3 3 3 3 2 2 1 1 1 1 1 1
0 0 0 0 0 0 0 0 0 0 0 0 1 1 2 3 3 3 4 4 4 4 3 3 3 4 4 5 5 5 4 4 3 3 3 3 2 2 2 2 2 1 1 1
0 0 0 0 0 0 0 0 0 0 0 0 0 1 2 2 3 3 3 4 4 3 3 3 3 4 4 4 5 5 5 4 4 3 4 4 3 3 2 2 2 2 2 2
0 0 0 0 0 0 0 0 0 0 0 0 0 0 1 2 2 3 3 3 3 2 2 3 3 4 4 4 5 5 5 5 4 4 4 4 4 3 3 2 2 2 2 1
0 0 0 0 0 0 0 0 0 0 0 0 0 1 1 1 2 2 2 2 2 2 2 2 3 4 4 4 5 6 6 5 5 5 5 4 4 3 2 1 1 1 1 0
0 0 0 0 0 0 0 0 0 0 0 0 0 1 1 1 1 1 1 1 1 1 1 2 2 3 4 4 5 6 5 5 4 4 4 3 3 2 1 1 0 0 0 0
0 0 0 0 0 0 0 0 0 0 0 0 1 1 1 1 1 1 1 1 1 1 1 1 2 2 3 3 4 3 3 2 2 2 2 1 1 1 0 0 0 0 0 0
0 0 0 0 0 0 0 0 0 0 0 0 1 1 1 1 1 1 1 1 1 1 1 1 1 2 2 2 2 1 1 0 0 0 0 0 0 0 0 0 0 0 0 0
0 0 0 0 0 0 0 0 0 0 0 0 1 1 1 1 1 1 1 0 0 0 1 1 1 1 1 1 1 0 0 0 0 0 0 0 0 0 0 0 0 0 0 0
0 0 0 0 0 0 0 0 0 0 0 0 1 1 1 1 1 1 0 0 0 0 0 0 0 0 0 0 0 0 0 0 0 0 0 0 0 0 0 0 0 0 0 0
0 0 0 0 0 0 0 0 0 0 0 0 1 1 1 1 1 1 0 0 0 0 0 0 0 0 0 0 0 0 0 0 0 0 0 0 0 0 0 0 0 0 0 0
0 0 0 0 0 0 0 0 0 0 0 0 1 1 1 1 1 1 0 0 0 0 0 0 0 0 0 0 0 0 0 0 0 0 0 0 0 0 0 0 0 0 0 0
0 0 0 0 0 0 0 0 0 0 0 0 1 1 1 1 1 0 0 0 0 0 0 0 0 0 0 0 0 0 0 0 0 0 0 0 0 0 0 0 0 0 0 0
0 0 0 0 0 0 0 1 1 1 1 1 1 1 0 0 0 0 0 0 0 0 0 0 0 0 0 0 0 0 0 0 0 0 0 0 0 0 0 0 0 0 0 0
0 0 0 0 0 0 0 0 1 1 1 1 1 1 0 0 0 0 0 0 0 0 0 0 0 0 0 0 0 0 0 0 0 0 0 0 0 0 0 0 0 0 0 0
0 0 0 0 0 0 0 0 0 1 1 1 1 0 0 0 0 0 0 0 0 0 0 0 0 0 0 0 0 0 0 0 0 0 0 0 0 0 0 0 0 0 0 0
0 0 0 0 0 0 0 0 0 0 0 0 0 0 0 0 0 0 0 0 0 0 0 0 0 0 0 0 0 0 0 0 0 0 0 0 0 0 0 0 0 0 0 0
0 0 0 0 0 0 0 0 0 0 0 0 0 0 0 0 0 0 0 0 0 0 0 0 0 0 0 0 0 0 0 0 0 0 0 0 0 0 0 0 0 0 0 -0
0 0 0 0 0 0 0 0 0 0 0 0 0 0 0 0 0 0 0 0 0 0 0 0 0 0 0 0 0 0 0 0 0 0 0 0 0 0 0 0 0 0 0 0
0 0 0 0 0 0 0 0 0 0 0 0 0 0 0 0 0 0 0 0 0 0 0 0 0 0 0 0 0 0 0 0 0 0 0 0 0 0 0 0 0 0 0 0
0 0 0 0 0 0 0 0 0 0 0 0 0 0 0 0 0 0 0 0 0 0 0 0 0 0 0 0 0 0 0 0 0 0 0 0 0 0 0 0 0 0 0 0
0 0 0 0 0 0 0 0 0 0 0 0 0 0 0 0 0 0 0 0 0 0 0 0 0 0 0 0 0 0 0 0 0 0 0 0 0 0 0 0 0 0 0 0
0 0 0 0 0 0 0 0 0 0 0 0 0 0 0 0 0 0 0 0 0 0 0 0 0 0 0 0 0 0 0 0 0 0 0 0 0 0 0 0 0 0 0 0
0 0 0 0 0 0 0 0 0 0 0 0 0 0 0 0 0 0 0 0 0 0 0 0 0 0 0 0 0 0 0 0 0 0 0 0 0 0 0 0 0 0 0 0
0 0 0 0 0 0 0 0 0 0 0 0 0 0 0 0 0 0 0 0 0 0 0 0 0 0 0 0 0 0 0 0 0 0 0 0 0 0 0 0 0 0 0 0
Wind_Speed
3 4 3 6 7 5 2 1 4 6 4 1 1 3 6 7 6 5 4 3 1 2 2 0 2 4 6 7 8 9 8 8 8 6 6 5 3 3 3 3 3 3 2 3
4 2 7 5 4 3 3 3 4 6 2 1 1 4 6 9 8 7 7 6 4 5 6 5 3 2 4 6 6 7 8 8 8 7 5 4 4 3 3 4 5 4 3 3
5 6 2 4 3 3 4 4 5 5 5 3 2 4 6 7 9 11 11 10 9 8 7 6 5 4 3 3 4 5 6 6 7 7 6 6 5 4 3 4 4 4 5 5
4 5 3 3 4 5 5 7 6 4 1 3 2 1 3 4 9 11 12 11 11 11 9 9 8 7 6 5 4 5 6 6 6 7 7 8 6 4 3 4 5 5 6 6
4 3 3 4 6 7 8 4 3 3 3 1 2 4 2 2 6 9 10 11 11 11 11 10 10 9 8 7 6 6 7 7 6 6 6 7 6 6 6 6 8 7 7 8
5 3 3 5 4 5 4 3 4 4 4 0 2 4 1 2 2 5 8 10 11 11 12 12 12 11 11 10 9 8 9 9 7 8 8 8 10 9 9 8 7 6 6 7
5 5 3 2 1 1 4 5 4 4 3 2 1 5 3 4 5 7 8 9 10 11 11 12 13 13 12 12 11 11 12 11 10 12 11 11 11 11 10 9 8 8 6 7
2 6 4 1 3 3 3 7 7 5 4 1 3 4 4 7 8 9 8 8 10 11 11 13 13 13 12 13 12 12 13 13 12 13 12 11 11 9 9 10 9 9 8 8
1 5 5 3 1 4 4 3 5 6 3 3 2 4 5 7 8 8 8 9 10 10 12 12 13 13 13 13 13 13 14 14 14 14 14 14 13 12 12 11 11 9 8 9
2 3 5 5 5 5 3 5 5 6 5 2 1 2 3 6 7 7 7 7 8 10 11 12 12 13 13 13 13 14 15 15 14 14 13 13 13 13 12 12 12 11 10 10
2 1 5 5 6 4 4 4 5 4 4 6 3 1 1 5 8 8 7 7 8 10 10 10 11 12 13 13 14 14 14 14 14 14 13 14 13 12 12 12 12 10 10 10
1 4 1 2 2 2 3 3 3 4 2 3 5 1 3 6 9 10 9 9 9 10 10 10 11 12 12 13 13 13 13 14 13 13 13 14 12 12 12 12 11 10 10 9
2 4 3 4 6 7 5 4 2 4 5 4 5 4 4 8 10 9 9 9 9 10 11 10 11 11 12 12 12 13 12 13 12 12 13 12 11 12 11 10 9 9 9 8
5 4 3 3 2 2 4 6 3 3 3 3 4 8 7 8 9 9 9 9 10 10 10 11 11 11 11 11 11 12 11 11 11 12 12 11 10 10 9 9 8 8 7 7
5 4 3 3 3 4 6 8 7 4 1 3 5 7 8 9 9 10 10 10 11 11 11 11 11 10 11 10 10 10 10 10 10 11 10 9 8 8 8 8 7 6 6 6
5 4 3 4 4 5 7 10 8 7 5 4 6 4 4 7 8 9 9 10 11 11 11 11 11 11 10 10 9 9 9 8 9 10 9 8 7 8 7 6 6 6 5 5
3 3 3 1 3 3 6 7 6 4 4 2 2 2 6 8 9 8 9 9 10 11 11 11 10 10 9 8 8 8 8 7 8 8 7 6 6 6 5 6 6 5 4 3
4 4 3 2 3 2 1 2 3 3 4 4 5 5 6 8 8 7 7 9 10 10 10 10 10 9 8 7 7 7 7 7 7 6 6 5 5 5 5 5 4 3 2 2
3 5 4 3 3 1 1 2 2 1 3 3 5 8 9 10 9 8 8 9 10 10 10 9 9 8 7 7 6 7 6 6 6 5 4 4 4 4 4 4 3 2 2 2
6 5 5 4 3 1 2 4 3 1 1 2 5 7 7 5 5 4 8 11 11 10 9 9 8 8 7 5 6 7 6 5 4 3 3 3 3 3 3 3 2 2 2 2
5 6 5 3 2 2 3 5 2 1 2 2 4 5 4 3 5 9 10 10 10 10 10 9 8 7 5 5 6 6 5 3 2 2 3 3 2 2 2 2 2 2 3 3
2 2 2 2 1 3 4 3 2 1 1 4 5 5 8 10 12 12 11 10 10 10 9 8 8 6 4 4 6 5 3 1 2 2 3 2 2 1 2 2 2 3 3 4
2 4 4 4 3 3 3 2 1 2 3 4 5 8 12 12 12 12 10 9 9 8 7 6 7 6 4 3 5 5 2 1 2 2 2 2 2 2 2 2 2 2 2 2
1 2 4 2 0 1 3 3 3 4 5 6 8 10 11 12 12 11 10 8 8 7 6 5 6 6 3 2 3 3 2 2 2 2 1 1 1 1 2 1 1 1 1 1
2 3 3 2 2 2 2 3 4 7 9 10 10 9 10 13 12 10 9 8 7 6 4 5 5 4 3 2 1 1 1 2 2 1 1 1 1 1 1 1 0 0 1 2
3 5 6 6 7 6 4 3 5 8 8 10 11 10 8 10 10 9 8 6 6 5 4 5 4 3 2 2 1 0 1 2 1 0 1 0 0 0 0 0 1 2 1 1
Wind_Direction
102 98 193 212 198 196 195 241 282 272 276 331 336 354 0 18 48 52 45 47 55 249 287 340 173 165 169 172 172 174 171 163 158 159 157 152 150 136 121 106 100 111 132 153
54 248 229 209 191 190 210 261 282 290 307 188 64 42 38 44 52 56 53 42 27 14 12 13 38 108 152 163 168 168 167 163 165 168 156 143 129 117 107 95 78 72 81 96
188 237 209 171 196 202 231 217 239 266 332 11 94 34 45 53 57 55 50 45 36 34 27 27 38 52 74 110 139 151 150 152 156 145 128 119 106 101 105 94 78 62 72 72
228 251 211 212 228 186 255 230 217 246 344 303 70 81 13 49 55 50 47 43 37 34 35 35 40 46 52 63 90 108 122 133 138 139 145 147 143 141 119 106 95 73 65 70
244 232 201 221 231 184 221 232 203 222 181 302 22 119 313 35 57 52 47 45 41 39 38 37 37 42 47 53 68 87 97 90 94 111 131 128 116 111 104 98 94 82 66 64
253 258 212 221 238 202 207 74 56 49 81 51 273 130 61 32 65 67 53 47 43 43 43 44 42 46 49 52 62 71 82 81 84 91 92 102 109 110 107 99 93 84 75 68
325 314 284 225 293 16 103 96 43 15 34 249 4 98 87 61 82 84 69 54 48 46 46 47 46 46 47 49 58 68 74 72 73 77 77 86 97 103 104 102 95 89 77 70
350 313 306 297 192 192 161 141 155 179 192 261 29 99 99 86 87 83 75 66 58 53 51 51 50 51 51 51 53 63 72 73 71 74 74 76 83 89 89 88 90 87 83 78
223 283 305 310 272 141 133 158 161 128 130 94 91 109 122 110 98 89 77 68 62 59 59 59 57 57 57 57 56 61 70 71 71 75 78 75 75 81 86 86 84 84 82 82
181 279 311 321 30 26 104 134 96 114 137 147 134 160 166 156 135 111 91 78 69 65 63 63 63 62 62 63 64 64 67 70 69 72 76 80 78 80 82 82 80 79 78 79
126 149 327 17 33 348 23 54 86 102 136 145 159 231 335 163 144 127 109 93 81 75 71 67 67 66 66 65 65 66 67 70 71 72 75 78 77 78 79 78 78 79 78 77
97 113 9 321 302 333 79 80 125 138 154 134 134 137 26 113 120 121 114 101 92 88 84 78 74 71 68 68 68 69 71 72 72 74 75 75 75 76 77 77 77 78 77 75
91 91 57 358 349 3 33 20 63 114 110 131 138 147 98 106 109 115 115 110 103 97 91 85 80 77 74 72 73 72 71 74 75 76 76 75 75 76 76 76 75 78 80 78
99 77 127 168 241 323 13 4 18 100 121 151 159 149 149 137 130 124 119 112 105 100 98 95 89 84 80 77 77 79 76 76 78 78 78 77 75 76 78 78 77 78 81 81
77 75 60 67 69 73 51 25 27 48 85 152 155 153 163 156 143 134 127 121 114 108 103 99 97 93 89 84 80 80 78 77 81 82 80 78 77 77 77 76 75 75 76 80
59 97 73 54 64 74 52 24 24 30 30 75 106 97 113 121 122 129 130 128 122 116 109 104 100 97 94 92 89 85 82 80 83 85 84 82 80 78 77 75 71 68 62 59
60 94 88 52 315 26 27 360 12 28 18 37 109 123 124 123 129 136 135 130 125 121 114 109 104 100 98 94 93 91 88 87 86 87 86 85 84 80 74 75 71 63 53 50
109 90 99 84 54 55 292 345 29 52 32 31 80 103 110 111 99 89 105 117 116 113 110 107 105 102 96 96 95 96 95 93 92 89 88 87 87 83 77 72 66 53 42 38
103 119 99 92 88 48 332 9 1 22 30 42 100 106 108 112 96 77 82 99 105 105 104 102 102 102 100 99 102 100 94 92 92 92 92 93 94 88 75 63 48 32 30 23
51 71 92 93 106 220 286 323 320 110 41 77 114 127 130 120 112 111 107 104 102 101 101 102 100 100 99 97 103 100 98 95 95 96 92 90 91 86 72 56 34 21 32 28
20 32 61 84 94 286 309 314 352 100 261 128 125 130 128 96 110 122 114 106 105 105 104 105 104 102 103 108 106 104 103 104 108 95 88 80 76 85 87 68 46 40 50 47
121 96 94 107 88 280 335 16 86 206 91 103 108 112 110 109 113 114 112 110 111 110 108 108 107 103 102 111 112 110 114 121 91 87 79 60 41 46 90 89 67 59 62 57
129 173 166 166 198 256 341 31 33 121 110 106 112 118 122 120 120 116 114 114 114 112 110 108 112 106 96 106 121 126 150 129 100 82 64 40 37 50 81 101 92 74 66 62
112 124 108 107 98 40 34 45 51 69 94 103 115 122 123 120 121 118 118 116 112 110 110 110 110 108 103 110 121 145 152 127 108 82 44 26 46 46 53 63 90 103 97 66
182 127 107 126 159 104 49 64 87 88 96 102 103 109 121 121 121 120 119 117 115 112 106 112 118 123 131 130 125 155 150 126 97 64 23 20 41 60 47 48 62 192 220 210
193 166 166 205 195 163 162 126 112 110 112 116 112 104 106 117 120 118 116 116 118 118 116 118 122 132 145 148 164 252 158 145 137 45 328 316 279 249 114 64 14 7 344 315